Weather History for Bowling Green, KY

Change the Weather History Date:

Thursday, April 25, 2013

  Actual Average Record
Temperature  
Mean Temperature 49 °F 60 °F  
Max Temperature 66 °F 72 °F 92 °F (1915)
Min Temperature 32 °F 49 °F 32 °F (1927)
Degree Days  
Heating Degree Days 16 6  
Month to date heating degree days 220 225  
Since 1 July heating degree days 3792 3943  
Cooling Degree Days 0 1  
Month to date cooling degree days 53 24  
Year to date cooling degree days 53 29  
Moisture  
Dew Point 36 °F    
Average Humidity 63    
Maximum Humidity 92    
Minimum Humidity 34    
Precipitation  
Precipitation 0.00 in 0.17 in 1.13 in (1932)
Month to date precipitation 4.19 3.55  
Year to date precipitation 17.09 15.53  
Snow  
Snow 0.00 in 0.00 in 2.30 in (1910)
Month to date snowfall 0.0 0.2  
Since 1 July snowfall 3.8 9.1  
Snow Depth 0.00 in    
Sea Level Pressure  
Sea Level Pressure 30.34 in    
Wind  
Wind Speed 3 mph (South)    
Max Wind Speed 13 mph    
Max Gust Speed 18 mph    
Visibility 7 miles    
Events      
T = Trace of Precipitation, MM = Missing Value Source: NWS Daily Summary

Daily Weather History Graph

Daily Weather History Graph

Search for Another Location

Airport:

Trip Planner

Search our weather history database for the weather conditions in past years. The results will help you decide how hot, cold, wet, or windy it might be!

Date:

Astronomy

Apr. 25, 2013 Rise Set
Actual Time 5:58 AM CDT 7:29 PM CDT
Civil Twilight 5:30 AM CDT 7:57 PM CDT
Nautical Twilight 4:57 AM CDT 8:30 PM CDT
Astronomical Twilight 4:23 AM CDT 9:04 PM CDT
Moon 7:41 PM CDT (4/25) 5:40 AM CDT (4/25)
Length of Visible Light 14h 26m
Length of Day
13h 31m
Full, 100% of the Moon is Illuminated
Apr 25
Full
Apr 25
Full
May 2
Last Quarter
May 9
New
May 17
First Quarter

Hourly Weather History & Observations

Time (CDT) Temp. Windchill Dew Point Humidity Pressure Visibility Wind Dir Wind Speed Gust Speed Precip Events Conditions
12:53 AM 39.0 °F - 36.0 °F 89% 30.32 in 10.0 mi Calm Calm - N/A   Clear
1:53 AM 37.0 °F - 34.0 °F 89% 30.30 in 7.0 mi Calm Calm - N/A   Clear
2:53 AM 37.0 °F - 34.0 °F 89% 30.31 in 6.0 mi Calm Calm - N/A   Clear
3:37 AM 33.8 °F - 30.2 °F 87% 30.31 in 1.8 mi Calm Calm - N/A   Clear
3:42 AM 33.8 °F 30.8 °F 30.2 °F 87% 30.30 in 0.8 mi ESE 3.5 mph - N/A   Clear
3:48 AM 33.8 °F 30.8 °F 30.2 °F 87% 30.30 in 1.5 mi ESE 3.5 mph - N/A   Clear
3:49 AM 33.8 °F 30.8 °F 30.2 °F 87% 30.30 in 2.0 mi ESE 3.5 mph - N/A   Clear
3:53 AM 34.0 °F 31.0 °F 30.9 °F 89% 30.31 in 6.0 mi ESE 3.5 mph - N/A   Clear
4:53 AM 35.1 °F - 32.0 °F 89% 30.32 in 4.0 mi Calm Calm - N/A   Clear
5:53 AM 33.1 °F - 30.9 °F 92% 30.35 in 7.0 mi Calm Calm - N/A   Clear
6:11 AM 32.0 °F - 30.2 °F 93% 30.34 in 1.5 mi Calm Calm - N/A   Clear
6:15 AM 33.8 °F - 30.2 °F 87% 30.34 in 0.8 mi Calm Calm - N/A   Clear
6:32 AM 33.8 °F - 32.0 °F 93% 30.34 in 2.5 mi Calm Calm - N/A   Clear
6:39 AM 33.8 °F - 32.0 °F 93% 30.34 in 10.0 mi Calm Calm - N/A   Clear
6:53 AM 35.1 °F - 33.1 °F 92% 30.35 in 9.0 mi Calm Calm - N/A   Clear
7:53 AM 42.1 °F 40.2 °F 37.9 °F 85% 30.37 in 10.0 mi SW 3.5 mph - N/A   Clear
8:53 AM 48.9 °F - 37.9 °F 66% 30.38 in 10.0 mi South 5.8 mph - N/A   Clear
9:44 AM 51.8 °F - 35.6 °F 54% 30.38 in - Variable 4.6 mph - N/A   Partly Cloudy
9:53 AM 51.1 °F - 37.0 °F 59% 30.38 in - Variable 5.8 mph - N/A   Clear
10:53 AM 55.0 °F - 37.0 °F 51% 30.38 in 10.0 mi Variable 4.6 mph - N/A   Clear
11:53 AM 59.0 °F - 39.0 °F 48% 30.38 in 10.0 mi WSW 5.8 mph - N/A   Clear
12:53 PM 60.1 °F - 37.9 °F 44% 30.36 in 10.0 mi SSW 8.1 mph - 0.01 in   Clear
1:53 PM 62.1 °F - 39.9 °F 44% 30.35 in 10.0 mi Variable 4.6 mph - N/A   Clear
2:53 PM 64.0 °F - 41.0 °F 43% 30.33 in 10.0 mi SSW 6.9 mph - N/A   Partly Cloudy
3:53 PM 64.9 °F - 39.9 °F 40% 30.32 in 10.0 mi Variable 6.9 mph - N/A   Partly Cloudy
4:53 PM 64.9 °F - 35.1 °F 33% 30.32 in 10.0 mi Variable 4.6 mph - N/A   Partly Cloudy
5:53 PM 64.9 °F - 36.0 °F 34% 30.32 in 10.0 mi West 10.4 mph - N/A   Clear
6:53 PM 63.0 °F - 35.1 °F 35% 30.33 in 10.0 mi Calm Calm - N/A   Clear
7:53 PM 57.9 °F - 41.0 °F 53% 30.34 in 10.0 mi Calm Calm - N/A   Clear
8:53 PM 55.0 °F - 42.1 °F 62% 30.35 in 10.0 mi Calm Calm - N/A   Clear
9:53 PM 48.9 °F - 42.1 °F 77% 30.38 in 10.0 mi Calm Calm - N/A   Clear
10:53 PM 48.0 °F - 41.0 °F 77% 30.38 in 10.0 mi Calm Calm - N/A   Clear
11:53 PM 46.0 °F - 39.9 °F 79% 30.38 in 10.0 mi Calm Calm - N/A   Clear